Starlink 3821

operational
NORAD ID: 52357 Int'l Des: 2022-045 Owner: SPXS Country: US Constellation: starlink
LEOCIRCULAR

Über Starlink 3821

Beschreibung wird geladen...

Live-Position

3D-Globus wird geladen...

Nächste Überflüge

Höhenverlauf

Altitude vs Time

uPlot chart will show altitude changes over time

Zweizeiliger Elementsatz

1 52357U 22045AC 25306.50062666 -.00000278 00000-0 61574-6 0 9999
2 52357 53.2180 50.0918 0001343 93.1508 266.9637 15.08839069196580
Epoch: 2. Nov. 2025 • Age: 20 hours

Aktueller Status

Höhe 550.5 km
Geschwindigkeit 7.59 km/s
Subsatellitenpunkt -32.63°S, 90.85°E
Startdatum 29. Apr. 2022
Alter 3.5 years
Typ internet

Technische Details

Klassifizierung Payload
Masse 297.00 kg
Trockenmasse 275.00 kg
Gesamtmasse 297.00 kg
Länge 0.20 m
Durchmesser 2.80 m
Spannweite 9.00 m
Form Box + pan
Hersteller SPXS
Bus-Typ Starlink
Phasenstatus In Orbit
Besitzer/Staat SPXS/US

Große Konstellationen

Loading constellations...